West Paducah, KY

8:26 PM CST on December 10, 2016 (GMT -0600)
Barkley Regional

Weather History for KPAH - January, 2014

Change the Weather History Date:

Tuesday, January 28, 2014

  Actual Average Record
Temperature  
Mean Temperature 12 °F 35 °F  
Max Temperature 20 °F 44 °F 71 °F (1975)
Min Temperature 3 °F 26 °F -4 °F (1963)
Degree Days  
Heating Degree Days 53 30  
Month to date heating degree days 966 857  
Since 1 July heating degree days 2626 2488  
Cooling Degree Days 0 0  
Month to date cooling degree days 0 0  
Year to date cooling degree days 0 0  
Moisture  
Dew Point -6 °F    
Average Humidity 54    
Maximum Humidity 83    
Minimum Humidity 25    
Precipitation  
Precipitation 0.00 in 0.12 in 0.90 in (1942)
Month to date precipitation 1.95 3.30  
Year to date precipitation 1.95 3.30  
Snow  
Snow 0.00 in 0.10 in 1.30 in (2009)
Month to date snowfall 1.1 2.6  
Since 1 July snowfall 6.3 4.9  
Snow Depth 0.00 in    
Sea Level Pressure  
Sea Level Pressure 30.47 in    
Wind  
Wind Speed 7 mph (NNE)    
Max Wind Speed 20 mph    
Max Gust Speed 24 mph    
Visibility 10 miles    
Events      
T = Trace of Precipitation, MM = Missing Value Source: NWS Daily Summary

Daily Weather History Graph

Daily Weather History Graph

Search for Another Location

Airport or City:

Trip Planner

Search our weather history database for the weather conditions in past years. The results will help you decide how hot, cold, wet, or windy it might be!

Date:

Astronomy

Jan. 28, 2014 Rise Set
Actual Time 7:00 AM CST 5:15 PM CST
Civil Twilight 6:33 AM CST 5:43 PM CST
Nautical Twilight 6:01 AM CST 6:14 PM CST
Astronomical Twilight 5:31 AM CST 6:45 PM CST
Moon 4:41 AM CST (1/28) 3:06 PM CST (1/28)
Length of Visible Light 11h 10m
Length of Day
10h 15m
Waning Crescent, 7% of the Moon is Illuminated
Jan 28
Waning Crescent
Jan 30
New
Feb 6
First Quarter
Feb 14
Full
Feb 22
Last Quarter

Hourly Weather History & Observations

Time (CST) Temp. Windchill Dew Point Humidity Pressure Visibility Wind Dir Wind Speed Gust Speed Precip Events Conditions
12:53 AM 12.9 °F -0.2 °F -5.1 °F 45% 30.48 in 10.0 mi NE 10.4 mph - N/A   Partly Cloudy
1:53 AM 12.0 °F -2.7 °F -7.1 °F 42% 30.50 in 10.0 mi NNE 12.7 mph - N/A   Partly Cloudy
2:53 AM 10.9 °F -4.1 °F -6.0 °F 47% 30.49 in 10.0 mi NNE 12.7 mph - N/A   Partly Cloudy
3:53 AM 10.0 °F -5.9 °F -7.1 °F 46% 30.48 in 10.0 mi NNE 13.8 mph - N/A   Scattered Clouds
4:53 AM 9.0 °F -4.2 °F -5.1 °F 53% 30.49 in 10.0 mi NNE 9.2 mph - N/A   Clear
5:53 AM 9.0 °F -5.1 °F -8.0 °F 46% 30.50 in 10.0 mi North 10.4 mph - N/A   Scattered Clouds
6:53 AM 9.0 °F -5.1 °F -6.0 °F 51% 30.50 in 10.0 mi NNE 10.4 mph - N/A   Partly Cloudy
7:53 AM 9.0 °F -5.9 °F -6.0 °F 51% 30.51 in 10.0 mi NNE 11.5 mph - N/A   Mostly Cloudy
8:53 AM 10.0 °F -3.7 °F -8.0 °F 44% 30.51 in 10.0 mi NNE 10.4 mph - N/A   Scattered Clouds
9:53 AM 12.9 °F -0.9 °F -8.0 °F 39% 30.54 in 10.0 mi North 11.5 mph - N/A   Scattered Clouds
10:53 AM 14.0 °F 2.9 °F -6.0 °F 41% 30.52 in 10.0 mi North 8.1 mph - N/A   Scattered Clouds
11:53 AM 16.0 °F 5.3 °F -8.0 °F 34% 30.50 in 10.0 mi NNE 8.1 mph - N/A   Clear
12:53 PM 18.0 °F 7.7 °F -9.0 °F 30% 30.46 in 10.0 mi NNE 8.1 mph - N/A   Clear
1:53 PM 19.0 °F 12.3 °F -11.0 °F 26% 30.43 in 10.0 mi North 4.6 mph - N/A   Clear
2:53 PM 19.0 °F 12.3 °F -9.9 °F 27% 30.41 in 10.0 mi ENE 4.6 mph - N/A   Clear
3:53 PM 19.9 °F 13.4 °F -11.0 °F 25% 30.41 in 10.0 mi NNW 4.6 mph - N/A   Clear
4:53 PM 18.0 °F 9.8 °F -9.9 °F 29% 30.41 in 10.0 mi North 5.8 mph - N/A   Clear
5:53 PM 15.1 °F - -7.1 °F 37% 30.42 in 10.0 mi Calm Calm - N/A   Clear
6:53 PM 12.9 °F - -7.1 °F 41% 30.42 in 10.0 mi Calm Calm - N/A   Clear
7:53 PM 9.0 °F - -0.0 °F 67% 30.43 in 10.0 mi Calm Calm - N/A   Clear
8:53 PM 8.1 °F - -5.1 °F 55% 30.43 in 10.0 mi Calm Calm - N/A   Clear
9:53 PM 5.0 °F - -0.0 °F 80% 30.45 in 10.0 mi Calm Calm - N/A   Clear
10:53 PM 5.0 °F - -0.9 °F 76% 30.45 in 10.0 mi Calm Calm - N/A   Clear
11:53 PM 3.9 °F - -2.0 °F 76% 30.45 in 10.0 mi Calm Calm - N/A   Clear